一网星座-0149星 (ONEWEB-0149 )

导读 | 豆包AI

ONEWEB-0149是英国OneWeb星座下的通信卫星,于2021年3月25日发射升空,隶属于OneWeb一期星座组网卫星。卫星重量约147.5公斤,设计寿命5年,配备Ku/Ka波段多波束天线,单星通信能力可达约7.5Gbps,运行在近千公里高度的低轨轨道,为全球提供高速卫星互联网接入服务,助力偏远地区网络覆盖与天地一体化网络建设。

基本信息
目录编号:
48058
目录名称:
ONEWEB-0149
国际标识:
2021-025S
轨道中心:
EARTH
卫星名称:
一网星座-0149星
卫星全名:
一网星座-0149星 (ONEWEB-0149 )
卫星状态:
在轨 (已飞行1815 天)
发射日期:
2021-03-25 UTC
国别 :
英国 (GB)
星等 :
--
轨道信息
数据来源 国际轨道数据
星历时间: 2026-03-14T00:59:54+0800
18小时前
查看轨道信息
半长轴: 7587.9km
偏心率: 0.0001601
轨道倾角: 87.904°
近地点辐角 73.185°
升交点赤经 339.212°
平近点角 286.946°
近地点: 1208.548km
远地点: 1210.978km
周期: 109.633分钟
每日圈数: 13.134708
详细信息
平衡模式:
三轴稳定
覆盖范围:
全球
运营商:
一网卫星公司
运营商所在国:
英国
制造商(研发单位):
一网卫星公司
制造商所在国:
英国
使用方式:
暂无
卫星简介
OneWeb卫星网络由648颗重约125公斤的微型卫星组成,运行在1200公里的轨道上。 每颗卫星都能够提供至少每秒8千兆位的吞吐量,以使用其高吞吐量的Ku频段有效载荷为家庭和移动平台提供互联网接入。该卫星仍在工作。
2D轨道图
3D轨道图
轨道高度分析图
轨道倾角分析图
轨道综合分析图
查看轨道综合分析图